Weather History for Faith, SD

Change the Weather History Date:

Saturday, June 29, 2013

  Actual Average Record
Temperature  
Mean Temperature 69 °F 70 °F  
Max Temperature 84 °F 83 °F 108 °F (2002)
Min Temperature 54 °F 57 °F 48 °F (2000)
Degree Days  
Heating Degree Days 0 1  
Month to date heating degree days 73 88  
Since 1 June heating degree days 73 88  
Since 1 July heating degree days 7607 7707  
Cooling Degree Days 4 6  
Month to date cooling degree days 78 82  
Year to date cooling degree days 91 94  
Since 1 June cooling degree days 78 82  
Growing Degree Days 18 (Base 50)    
Moisture  
Dew Point 50 °F    
Average Humidity 61    
Maximum Humidity 93    
Minimum Humidity 28    
Precipitation  
Precipitation 0.00 in 0.13 in 0.26 in (2005)
Month to date precipitation 1.26 2.97  
Year to date precipitation 8.90 9.27  
Sea Level Pressure  
Sea Level Pressure 30.11 in    
Wind  
Wind Speed 10 mph (North)    
Max Wind Speed 21 mph    
Max Gust Speed 26 mph    
T = Trace of Precipitation, MM = Missing Value Source: NWS Daily Summary

Daily Weather History Graph

Daily Weather History Graph

Search for Another Location

Airport:

Trip Planner

Search our weather history database for the weather conditions in past years. The results will help you decide how hot, cold, wet, or windy it might be!

Date:

Astronomy

Jun. 29, 2013 Rise Set
Actual Time 5:04 AM MDT 8:38 PM MDT
Civil Twilight 4:26 AM MDT 9:16 PM MDT
Nautical Twilight 3:37 AM MDT 10:05 PM MDT
Astronomical Twilight 2:32 AM MDT 11:10 PM MDT
Moon No Moon Rise 12:38 PM MDT (6/29)
Length of Visible Light 16h 49m
Length of Day
15h 34m
Waning Gibbous, 55% of the Moon is Illuminated
Jun 29
Waning Gibbous
Jun 29
Last Quarter
Jul 8
New
Jul 15
First Quarter
Jul 22
Full

Hourly Weather History & Observations

Time (MDT) Temp. Dew Point Humidity Pressure Visibility Wind Dir Wind Speed Gust Speed Precip Events Conditions
12:56 AM 60.1 °F 54.0 °F 80% 30.11 in - North 5.8 mph - N/A   Unknown
1:56 AM 59.0 °F 53.1 °F 81% 30.12 in - NNW 4.6 mph - N/A   Unknown
2:56 AM 57.9 °F 52.0 °F 81% 30.12 in - WNW 3.5 mph - N/A   Unknown
3:56 AM 55.9 °F 51.1 °F 84% 30.13 in - WNW 9.2 mph - N/A   Unknown
4:56 AM 54.0 °F 51.1 °F 90% 30.14 in - WNW 6.9 mph - N/A   Unknown
5:56 AM 55.0 °F 51.1 °F 86% 30.14 in - WNW 6.9 mph - N/A   Unknown
6:56 AM 62.1 °F 52.0 °F 70% 30.13 in - NW 8.1 mph - N/A   Unknown
7:56 AM 68.0 °F 52.0 °F 56% 30.13 in - NW 8.1 mph - N/A   Unknown
8:56 AM 73.0 °F 51.1 °F 46% 30.13 in - NNW 9.2 mph - N/A   Unknown
9:56 AM 75.9 °F 48.9 °F 38% 30.12 in - WNW 11.5 mph 19.6 mph N/A   Unknown
10:56 AM 80.1 °F 46.9 °F 31% 30.11 in - North 12.7 mph 17.3 mph N/A   Unknown
11:56 AM 81.0 °F 45.0 °F 28% 30.11 in - North 13.8 mph 21.9 mph N/A   Unknown
12:56 PM 81.0 °F 46.9 °F 30% 30.10 in - NNE 13.8 mph 23.0 mph N/A   Unknown
1:56 PM 80.1 °F 45.0 °F 29% 30.10 in - North 15.0 mph 26.5 mph N/A   Unknown
2:56 PM 82.9 °F 46.9 °F 28% 30.09 in - North 13.8 mph 23.0 mph N/A   Unknown
3:56 PM 82.0 °F 48.0 °F 30% 30.08 in - North 17.3 mph - N/A   Unknown
4:56 PM 82.9 °F 46.9 °F 28% 30.08 in - North 16.1 mph 21.9 mph N/A   Unknown
5:56 PM 80.1 °F 48.9 °F 34% 30.07 in - North 13.8 mph - N/A   Unknown
6:56 PM 77.0 °F 51.1 °F 40% 30.06 in - North 13.8 mph - N/A   Unknown
7:56 PM 73.0 °F 54.0 °F 51% 30.07 in - NNE 9.2 mph - N/A   Unknown
8:56 PM 66.9 °F 54.0 °F 63% 30.08 in - NE 5.8 mph - N/A   Unknown
9:56 PM 64.9 °F 54.0 °F 68% 30.10 in - ENE 4.6 mph - N/A   Unknown
10:56 PM 62.1 °F 53.1 °F 72% 30.11 in - NE 5.8 mph - N/A   Unknown
11:56 PM 62.1 °F 53.1 °F 72% 30.11 in - NE 3.5 mph - N/A   Unknown